Weather History for Buffalo, WY

Change the Weather History Date:

Monday, September 2, 2013

  Actual Average Record
Temperature  
Mean Temperature 77 °F 65 °F  
Max Temperature 94 °F 79 °F 94 °F (2013)
Min Temperature 60 °F 51 °F 36 °F (2008)
Degree Days  
Heating Degree Days 0 4  
Month to date heating degree days 0 7  
Since 1 July heating degree days 1 72  
Cooling Degree Days 12 3  
Month to date cooling degree days 18 7  
Year to date cooling degree days 632 453  
Growing Degree Days 28 (Base 50)    
Moisture  
Dew Point 45 °F    
Average Humidity 36    
Maximum Humidity 57    
Minimum Humidity 15    
Precipitation  
Precipitation 0.04 in 0.03 in 0.04 in (2004)
Month to date precipitation 0.04 0.06  
Year to date precipitation 4.46 10.33  
Sea Level Pressure  
Sea Level Pressure 29.90 in    
Wind  
Wind Speed 9 mph (South)    
Max Wind Speed 26 mph    
Max Gust Speed 33 mph    
Visibility 10 miles    
Events Rain    
T = Trace of Precipitation, MM = Missing Value Source: NWS Daily Summary

Daily Weather History Graph

Daily Weather History Graph

Search for Another Location

Airport:

Trip Planner

Search our weather history database for the weather conditions in past years. The results will help you decide how hot, cold, wet, or windy it might be!

Date:

Astronomy

Sep. 02, 2013 Rise Set
Actual Time 6:31 AM MDT 7:40 PM MDT
Civil Twilight 6:01 AM MDT 8:10 PM MDT
Nautical Twilight 5:25 AM MDT 8:46 PM MDT
Astronomical Twilight 4:47 AM MDT 9:23 PM MDT
Moon 3:47 AM MDT (9/2) 5:58 PM MDT (9/2)
Length of Visible Light 14h 09m
Length of Day
13h 09m
Waning Crescent, 7% of the Moon is Illuminated
Sep 2
Waning Crescent
Sep 5
New
Sep 12
First Quarter
Sep 19
Full
Sep 26
Last Quarter

Hourly Weather History & Observations

Time (MDT) Temp. Dew Point Humidity Pressure Visibility Wind Dir Wind Speed Gust Speed Precip Events Conditions
12:53 AM 66.9 °F 37.9 °F 34% 29.94 in 10.0 mi South 6.9 mph - N/A   Clear
1:53 AM 66.0 °F 39.0 °F 37% 29.92 in 10.0 mi SSE 5.8 mph - N/A   Clear
2:53 AM 66.0 °F 41.0 °F 40% 29.91 in 10.0 mi SSE 3.5 mph - N/A   Clear
3:53 AM 62.1 °F 42.1 °F 48% 29.91 in 10.0 mi Calm Calm - N/A   Clear
4:53 AM 63.0 °F 41.0 °F 45% 29.90 in 10.0 mi South 6.9 mph - N/A   Clear
5:53 AM 63.0 °F 37.0 °F 38% 29.90 in 10.0 mi South 5.8 mph - N/A   Clear
6:53 AM 64.9 °F 33.1 °F 31% 29.91 in 10.0 mi SSE 6.9 mph - N/A   Clear
7:53 AM 72.0 °F 33.1 °F 24% 29.91 in 10.0 mi Calm Calm - N/A   Clear
8:53 AM 73.9 °F 37.0 °F 26% 29.93 in 10.0 mi East 3.5 mph - N/A   Clear
9:53 AM 73.9 °F 43.0 °F 33% 29.94 in 10.0 mi Calm Calm - N/A   Clear
10:53 AM 82.9 °F 46.9 °F 28% 29.91 in 10.0 mi SSE 6.9 mph - N/A   Clear
11:53 AM 84.9 °F 42.1 °F 22% 29.90 in 10.0 mi South 17.3 mph 25.3 mph N/A   Clear
12:53 PM 90.0 °F 39.9 °F 17% 29.87 in 10.0 mi SSE 18.4 mph 26.5 mph N/A   Clear
1:53 PM 88.0 °F 39.0 °F 18% 29.86 in 10.0 mi SSW 19.6 mph 28.8 mph N/A   Clear
2:00 PM 87.8 °F 37.4 °F 17% 30.06 in 10.0 mi SSW 11.5 mph 25.3 mph N/A   Clear
2:53 PM 93.0 °F 39.9 °F 16% 29.82 in 10.0 mi SSE 11.5 mph - N/A   Clear
3:53 PM 91.9 °F 41.0 °F 17% 29.82 in 10.0 mi SE 16.1 mph - N/A   Clear
4:33 PM 73.4 °F 57.2 °F 57% 30.04 in 6.0 mi SW 18.4 mph 33.4 mph 0.02 in Rain Rain
4:53 PM 73.9 °F 55.0 °F 52% 29.88 in 10.0 mi SW 19.6 mph 29.9 mph 0.02 in   Overcast
5:53 PM 79.0 °F 52.0 °F 39% 29.87 in 10.0 mi South 12.7 mph 18.4 mph 0.00 in   Scattered Clouds
6:53 PM 75.9 °F 52.0 °F 43% 29.86 in 10.0 mi South 16.1 mph 25.3 mph N/A   Scattered Clouds
7:53 PM 73.9 °F 53.1 °F 48% 29.86 in 10.0 mi SSE 8.1 mph - N/A   Overcast
8:53 PM 73.9 °F 54.0 °F 50% 29.88 in 10.0 mi SSW 15.0 mph - N/A   Mostly Cloudy
9:53 PM 71.1 °F 55.9 °F 59% 29.91 in 10.0 mi South 9.2 mph - 0.01 in   Overcast
10:53 PM 68.0 °F 57.0 °F 68% 29.88 in 10.0 mi South 5.8 mph - 0.01 in Rain Light Rain
11:53 PM 68.0 °F 59.0 °F 73% 29.87 in 10.0 mi WNW 3.5 mph - 0.00 in   Overcast